This is the latest recevied weather packets stored in our database for station/object KA1BMF-13. If no packets are shown the sender has not sent any weather packets the latest 10 day(s).
| Time | Temp. | Humidity | Pressure | Rain* | Wind** | Luminosity | Snow |
|---|---|---|---|---|---|---|---|
| 1788565818 | 21.11° C | 87% | 1010 hPa | 0 mm | - | 0 W/m² | - |
| 1788565218 | 21.11° C | 87% | 1009.9 hPa | 0 mm | - | 0 W/m² | - |
| 1788564618 | 21.11° C | 86% | 1009.9 hPa | 0 mm | - | 1 W/m² | - |
| 1788564018 | 21.67° C | 86% | 1009.9 hPa | 0 mm | - | 3 W/m² | - |
| 1788563418 | 21.67° C | 84% | 1009.8 hPa | 0 mm | - | 7 W/m² | - |
| 1788562818 | 21.67° C | 83% | 1009.9 hPa | 0 mm | - | 12 W/m² | - |
| 1788562219 | 21.67° C | 81% | 1009.9 hPa | 0 mm | - | 16 W/m² | - |
| 1788561616 | 22.22° C | 82% | 1010 hPa | 0 mm | - | 21 W/m² | - |
| 1788561019 | 22.78° C | 82% | 1010 hPa | 0 mm | - | 23 W/m² | - |
| 1788560419 | 22.78° C | 80% | 1009.9 hPa | 0 mm | - | 29 W/m² | - |
| 1788559819 | 23.33° C | 79% | 1009.8 hPa | 0 mm | - | 32 W/m² | - |
| 1788559216 | 23.33° C | 77% | 1009.8 hPa | 0 mm | - | 31 W/m² | - |
| 1788558617 | 23.89° C | 75% | 1009.9 hPa | 0 mm | - | 31 W/m² | - |
| 1788558020 | 24.44° C | 73% | 1009.8 hPa | 0 mm | - | 39 W/m² | - |
| 1788557420 | 24.44° C | 70% | 1009.8 hPa | 0 mm | - | 42 W/m² | - |
| 1788556817 | 24.44° C | 66% | 1009.8 hPa | 0 mm | - | 44 W/m² | - |
| 1788556218 | 25° C | 68% | 1009.8 hPa | 0 mm | - | 47 W/m² | - |
| 1788555617 | 25.56° C | 66% | 1009.9 hPa | 0 mm | - | 50 W/m² | - |
| 1788555018 | 25.56° C | 65% | 1009.9 hPa | 0 mm | - | 64 W/m² | - |
| 1788554418 | 26.11° C | 65% | 1009.9 hPa | 0 mm | - | 71 W/m² | - |
| 1788553818 | 26.11° C | 62% | 1009.9 hPa | 0 mm | - | 121 W/m² | - |
| 1788553218 | 26.67° C | 59% | 1009.9 hPa | 0 mm | - | 63 W/m² | - |
| 1788552619 | 27.22° C | 59% | 1009.9 hPa | 0 mm | - | 127 W/m² | - |
| 1788552016 | 27.22° C | 60% | 1009.8 hPa | 0 mm | - | 484 W/m² | - |
| 1788551419 | 27.22° C | 57% | 1009.9 hPa | 0 mm | - | 528 W/m² | - |
* Rain latest hour (hover to see other rain measurements)
** Current wind speed in m/s (hover to see current wind gust speed)